Tracking 29892 objects as of 21-Nov-2024
HD Live streaming from Space Station
objects crossing your sky now

STARLINK-4129

Track STARLINK-4129 now!
10-day predictions
STARLINK-4129 is classified as:


NORAD ID: 53251
Int'l Code: 2022-086K
Perigee: 545.6 km
Apogee: 548.1 km
Inclination: 53.2 °
Period: 95.4 minutes
Semi major axis: 6917 km
RCS: Unknown
Launch date: July 24, 2022
Source: United States (US)
Launch site: AIR FORCE EASTERN TEST RANGE (AFETR)
Your satellite tracking list
Your tracking list is empty




NASA's NSSDC Master Catalog

Two Line Element Set (TLE):
1 53251U 22086K   24324.82720970  .00006308  00000-0  41405-3 0  9998
2 53251  53.2164 165.8634 0001808  70.4739 289.6449 15.08839183129199
Source of the keplerian elements: AFSPC